KC2RP Weather Reports


time (UTC)temp
C
wind
direction
speed
KPH
gust
KPH
rain 1hr
cm
rain 24hr
cm
rain mn
cm
humidity
%
barometer
mb
20260504081527 5 316 0.0 0.0 0.00 0.00 0.00 86 1009.2
20260504050007 6 312 0.0 0.0 0.00 0.00 0.00 80 1009.9
20260504044505 6 312 0.0 0.0 0.00 0.00 0.00 79 1010.1
20260504043116 6 312 0.0 0.0 0.00 0.00 0.00 77 1010.3
20260504041503 6 312 0.0 0.0 0.00 0.00 0.00 78 1010.6
20260504034555 5 312 0.0 0.0 0.00 0.00 0.00 76 1010.3
20260504033059 4 311 0.0 0.0 0.00 0.00 0.00 77 1010.1
20260504031558 4 312 0.0 0.0 0.00 0.00 0.00 75 1010.0
20260504030050 4 312 0.0 0.0 0.00 0.00 0.00 74 1009.9
20260504024556 4 312 0.0 0.0 0.00 0.00 0.00 74 1009.9
20260504023047 4 312 0.0 0.0 0.00 0.00 0.00 71 1009.9
20260504021551 5 312 0.0 0.0 0.00 0.00 0.00 69 1009.9
20260504020049 6 312 0.0 0.0 0.00 0.00 0.00 66 1009.9
20260504014542 7 312 0.0 0.0 0.00 0.00 0.00 63 1009.9
20260504013047 8 312 0.0 0.0 0.00 0.00 0.00 57 1009.9
20260504011540 9 312 0.0 0.0 0.00 0.00 0.00 53 1009.8
20260504010037 10 312 0.0 0.0 0.00 0.00 0.00 48 1009.6
20260504004543 10 28 0.0 1.6 0.00 0.00 0.00 47 1009.4
20260504003036 10 353 0.0 8.0 0.00 0.00 0.00 45 1009.3
20260504001535 10 287 1.6 6.4 0.00 0.00 0.00 44 1009.1
20260504000034 11 284 0.0 4.8 0.00 0.00 0.00 41 1009.0
20260503234534 11 20 0.0 6.4 0.00 0.00 0.00 40 1008.7
20260503233034 12 280 0.0 12.9 0.00 0.00 0.00 38 1008.6
20260503231532 12 314 3.2 11.3 0.00 0.00 0.00 35 1008.5
20260503230032 13 288 3.2 12.9 0.00 0.00 0.00 33 1008.2
20260503224531 13 328 4.8 14.5 0.00 0.00 0.00 33 1007.9
20260503223031 13 304 3.2 11.3 0.00 0.00 0.00 33 1007.9
20260503221528 13 293 3.2 11.3 0.00 0.00 0.00 31 1008.0
20260503220033 13 340 1.6 11.3 0.00 0.00 0.00 31 1007.9
20260503214526 13 291 4.8 12.9 0.00 0.00 0.00 31 1008.0
20260503213029 13 224 4.8 17.7 0.00 0.00 0.00 32 1007.9
20260503211623 13 300 1.6 14.5 0.00 0.00 0.00 34 1008.0
20260503210022 12 312 3.2 16.1 0.00 0.00 0.00 34 1007.9
20260503204520 12 305 3.2 14.5 0.00 0.00 0.00 34 1008.0
20260503203020 12 253 4.8 14.5 0.00 0.00 0.00 35 1008.4
20260503201513 12 18 3.2 14.5 0.00 0.00 0.00 38 1008.5
20260503200012 12 353 1.6 14.5 0.00 0.00 0.00 40 1008.6
20260503194509 11 266 3.2 11.3 0.00 0.00 0.00 40 1008.7
20260503193018 11 279 3.2 12.9 0.00 0.00 0.00 40 1009.0
20260503191504 11 30 6.4 14.5 0.00 0.00 0.00 40 1009.1
20260503190002 11 278 4.8 16.1 0.00 0.00 0.00 41 1009.2
20260503184608 11 4 3.2 9.7 0.00 0.00 0.00 43 1009.3
20260503183057 11 22 0.0 8.0 0.00 0.00 0.00 43 1009.3
20260503181554 10 279 6.4 12.9 0.00 0.00 0.00 44 1009.6
20260503180053 10 274 4.8 12.9 0.00 0.00 0.00 45 1009.6
20260503174604 10 260 4.8 9.7 0.00 0.00 0.00 47 1009.8
20260503173049 9 353 3.2 14.5 0.00 0.00 0.00 51 1009.8
20260503171546 9 247 3.2 11.3 0.00 0.00 0.00 51 1010.0